Regional Weather Roundup
Issued by NWS Austin/San Antonio, TX

Home | Current Version | Previous Version | Text Only | Print | Product List | Glossary On
Versions: 1 2 3 4 5 6 7 8 9 10 11 12 13 14 15 16 17 18 19 20 21 22 23 24 25 26 27 28 29 30 31 32 33 34 35 36 37 38 39 40 41 42 43 44 45 46 47 48 49 50
000
ASUS44 KEWX 231602
RWREWX
SOUTH TEXAS REGIONAL WEATHER ROUNDUP
NATIONAL WEATHER SERVICE AUSTIN/SAN ANTONIO TX
1100 AM CDT SUN JUL 23 2017

NOTE: "FAIR" INDICATED FEW OR NO CLOUDS BELOW 12,000 FEET WITH NO
SIGNIFICANT WEATHER AND/OR OBSTRUCTIONS TO VISIBILITY.

* - THESE STATIONS ARE NOT NWS OR FAA STATIONS...AND ARE NOT SUBJECT
    TO NWS AND FAA QUALITY CONTROL.

TXZ171-172-183>190-231700-
TEXAS HILL COUNTRY AND EDWARDS PLATEAU

CITY           SKY/WX    TMP DP  RH WIND       PRES   REMARKS
JUNCTION       SUNNY     87  69  54 SW6       29.99S HX  91
*LLANO         MOSUNNY   90  70  51 CALM      29.99S HX  95
BURNET         MOSUNNY   86  69  56 S6        29.99S HX  90
*HORSESHOE BAY SUNNY     90  70  50 SW7       29.97S HX  95
*KERRVILLE     SUNNY     84  74  70 SW7       30.00S HX  91
*FREDERICKSBRG SUNNY     86  67  53 SW7       30.00R
*ROCKSPRINGS   SUNNY     86  66  51 SW9       30.05S
*BOERNE STAGE  SUNNY     84  70  61 S7        30.01R
*CASTROVILLE   SUNNY     90  69  51 S5        29.98S HX  94
HONDO          SUNNY     88  72  58 VRB6      29.97S HX  94
*UVALDE        SUNNY     86  71  59 CALM      29.97S HX  91
DEL RIO        SUNNY     87  68  52 E9        29.94S HX  90
LAUGHLIN AFB   NOT AVBL
CARRIZO SPRGS  SUNNY     88  70  55 S8        29.92S HX  92
*EAGLE PASS    NOT AVBL
$$

TXZ173-191>194-202-209-217>225-228-231700-
CENTRAL AND SOUTH CENTRAL TEXAS

CITY           SKY/WX    TMP DP  RH WIND       PRES   REMARKS
GEORGETOWN     SUNNY     86  73  66 S14G22    29.95S HX  93
AUSTIN/BERGSTM MOSUNNY   91  72  53 S15       29.95R HX  98
AUSTIN/MABRY   SUNNY     92  71  50 VRB5      29.96R HX  98
*AUSTIN/EXEC     N/A     88  72  58 SW14      29.96S HX  94
*LAGO VISTA    SUNNY     88  71  57 SW7       29.98S HX  94
SAN MARCOS     SUNNY     90  66  45 SW15      29.97S HX  92
NEW BRAUNFELS  SUNNY     90  72  55 SW12      29.95S HX  97
RANDOLPH AFB   SUNNY     89  72  57 SW12      29.96S HX  95
PT SAN ANTONIO SUNNY     89  72  57 S6        29.95R HX  95
SAN ANTONIO    MOSUNNY   88  71  57 S9        29.97S HX  94
STINSON FIELD  SUNNY     90  70  51 S10G17    29.94S HX  95
*LA GRANGE     SUNNY     91  75  59 S13       29.93F HX 102
*GIDDINGS      SUNNY     89  70  53 SW10G17   29.96F HX  93
*GONZALES      MOSUNNY   90  75  61 SW15      29.95S HX  99
$$

TXZ163>164-176>182-195>201-210>213-226-227-235-231700-
SOUTHEAST TEXAS

CITY           SKY/WX    TMP DP  RH WIND       PRES   REMARKS
COLLEGE STN    SUNNY     91  72  53 SW15G22   29.95S HX  98
*BRYAN         SUNNY     89  73  57 SW13G18   29.96S HX  96
*CALDWELL      NOT AVBL
*CROCKETT      CLOUDY    84  77  79 SW8       29.99R HX  94
*BRENHAM       MOSUNNY   91  72  54 SW14G20   29.97S HX  98
HUNTSVILLE     MOSUNNY   88  73  61 SW13G22   29.97R HX  95
CONROE         CLOUDY    89  75  63 SW12      29.97R HX  99
HOUSTON BUSH   PTSUNNY   89  75  63 SW12      29.97R HX  99
HOUSTON HOBBY  PTSUNNY   91  74  57 W13       29.96R HX 100
*HOUSTON SW AP MOSUNNY   89  77  67 SW10G16   29.98R HX 101
PEARLAND       MOSUNNY   91  74  57 SW6       29.98R HX 100
HOUSTON HOOKS  PTSUNNY   87  77  72 SW13      29.97R HX  99
ELLINGTON FLD  PTSUNNY   91  75  59 SW13      29.98R HX 102
SUGAR LAND     MOSUNNY   88  76  67 SW13      29.96R HX  99
*HOUSTON EXEC  MOSUNNY   90  75  62 SW17      29.98R HX 100
*CLEVELAND MUN PTSUNNY   88  76  69 W7G18     29.98S HX  98
*WHARTON       MOSUNNY   89  71  55 S10G18    29.97S HX  94
*COLUMBUS      FAIR      90  71  54 S13       29.97S HX  96
*EAGLE LAKE    MOSUNNY   89  77  66 SW12G18   29.96S HX 101
$$

TXZ214>216-236>238-231700-
THE UPPER TEXAS COAST

CITY           SKY/WX    TMP DP  RH WIND       PRES   REMARKS
*ORANGE        CLOUDY    84  80  88 CALM      30.00R HX  97
PORT ARTHUR    CLOUDY    84  79  85 W7        29.98R HX  96
GALVESTON      MOSUNNY   89  76  65 SW20      29.98R HX 100
ANGLETON       MOSUNNY   90  76  63 S14G21    29.97R HX 101
*BAY CITY      PTSUNNY   91  75  61 S17       29.97R HX 101
PALACIOS       MOSUNNY   87  75  67 S15G22    29.96R HX  96
$$

TXZ229>234-239>247-231700-
TEXAS COASTAL BEND AND RIO GRANDE PLAINS

CITY           SKY/WX    TMP DP  RH WIND       PRES   REMARKS
VICTORIA       PTSUNNY   91  73  55 SW13      29.95S HX  99
*BEEVILLE      MOSUNNY   91  75  59 S17G23    29.94S HX 101
ROCKPORT       MOSUNNY   91  73  55 S12G20    29.94R HX  99
*PORT ARANSAS  SUNNY     88  74  63 S20       29.94F HX  96
*PORT LAVACA   MOSUNNY   90  72  55 S15G22    29.96R HX  96
*INGLESIDE     MOSUNNY   90  75  62 MISG      29.94S HX 100
CORPUS CHRISTI MOSUNNY   90  73  57 S18G29    29.93S HX  98
CORPUS NAS     MOSUNNY   90  77  65 S18G29    29.94S HX 103
*ROBSTOWN      SUNNY     92  73  53 S17G24    29.94S HX 100
ALICE          MOSUNNY   89  73  59 S18G29    29.92S HX  97
KINGSVILLE NAS MOSUNNY   92  76  59 S20G26    29.93S HX 104
COTULLA        SUNNY     89  68  49 CALM      29.93S HX  93
*FAITH RANCH   SUNNY     90  70  51 VRB6G12   29.93S HX  95
LAREDO         SUNNY     90  71  53 S12         N/A  HX  96
$$

TXZ248>255-231700-
DEEP SOUTH TEXAS

CITY           SKY/WX    TMP DP  RH WIND       PRES   REMARKS
BROWNSVILLE    SUNNY     89  74  60 S18       29.95S HX  98
PORT ISABEL    SUNNY     92  73  53 S22G28    29.93F HX 100
*SOUTH PADRE   NOT AVBL
HARLINGEN      SUNNY     92  72  51 S20       29.93S HX  99
*HEBBRONVILLE  MOSUNNY   86  70  58 S13G20    29.94F HX  90
MCALLEN        MOSUNNY   92  72  51 SE22G28   29.92F HX  99
*WESLACO       SUNNY     91  69  49 S18       29.92S HX  96
FALFURRIAS     MOSUNNY   90  73  58 SE14G22   29.93S HX  97
EDINBURG       MOSUNNY   92  69  46 S14G24    29.93F HX  97
*ZAPATA        SUNNY     89  68  49 SE9       29.91F HX  93
$$

TXZ213>215-236>238-242>244-246-247-251-254-255-231700-
CMAN STATIONS

STATION/POSITION TIME  TEMP    WIND        PRES    WAVE
                       AIR SEA DIR/SP/G            HT/PER
                 (UTC) (F)     (DEG/KT/KT) (MB)    (FT/S)
SABINE PASS      1530   87 88  230/  6/ 15 1016.6
SEA RIM ST PARK  1500   86     230/ 12/ 17 1015.4
NORTH JETTY/GLS  1530      86  200/ 18/ 22 1014.4
EAGLE POINT      1530   88 87  230/ 12/ 16 1014.7
MORGANS POINT    1530   88 88  230/  8/ 10 1014.5
MISSION/ARANSAS  1500          180/ 17     1014.0
PORT O`CONNOR    1530   85     190/ 18/ 22 1013.7
PORT ARANSAS     1500   84 85  180/ 21/ 23 1013.8
MALAQUITE BEACH  1530   84 85  170/ 22/ 26 1013.2
BAFFIN BAY       1530   84 83              1014.0
PORT ISABEL      1530   87 85              1014.2
$$



USA.gov is the U.S. government's official web portal to all federal, state and local government web resources and services.